Погода в Вязьме

Поиск расширенной информации на нашем сайте:

Полезная информация:

Новости сайта



02.01.2020
Опубликован Долгосрочный прогноз погоды по городам России и ближнего зарубежья на январь 2020 года.
Карты: Прогноз на январь и февраль 2020 года, Сравнение прогнозируемой аномалии приземной температуры воздуха на январь 2020 года по разным моделям.




Погода в Вязьме - сегодня

Время (UTC), дата Ветер
(°,м/с) 
Видим.   Явления Облачность Т
(°С)
Тd
(°С)
f(%) Тe
(°С)
Pmin
(гПа)
dP
(гПа)
Po
(мм)
O2
(г/м3)
Тmin Tmax R s Состояние
почвы
12 09.08.20 350 (С) 10 км  {ливн. осадки}  6/6 600 м 
[Cu hum]
+24.5 +13.1 49 +30  1016.7  -1  741  272           
15 09.08.20 360 (С) 10 км    4/4 600 м 
[Sc]
+22.2 +13.8 59 +29  1016.3  -0.7  741  273      0.0     
18 09.08.20 тихо ()   10 км    3/1 600 м верхняя 
[Sc|Ci fib]
+16.3 +14.8 91 +25  1017.1  0.3  741  279    +25.4  0.0     
21 09.08.20 270 (З) 4000 м  дымка  1/0 верхняя 
[Ci fib]
+14.3 +13.4 94 +22  1017.3  0.1  741  281           
00 10.08.20 290 (З) 4000 м  дымка  ясно 
+14.1 +13.4 96 +21  1017.5  0.1  741  281           
03 10.08.20 тихо ()   4000 м  дымка  3/1 600 м верхняя 
[Sc|Ci fib]
+14.4 +13.7 96 +21  1017.4  741  281  +13         
06 10.08.20 310 (СЗ) 10 км    3/0 верхняя 
[Ci fib]
+20.7 +14.8 69 +29  1016.8  741  275  +13        сухая 
09 10.08.20 340 (С) 10 км    4/3 1000 м верхняя 
[Cu hum|Ci fib]
+24.3 +13.5 51 +31  1015.8  -0.6  741  271           
12 10.08.20 160 (Ю) 10 км  {ливн. осадки}  8/6 600 м кучево-дожд., верхняя 
[Cb calv|Ci fib]
+23.4 +14.8 58 +32  1014.8  -1.1  740  272           
15 10.08.20 290 (З) 10 км  {гроза}  8/4 1000 м верхняя 
[Cu med, cong|Ci fib]
+22.5 +15.4 64 +32  1014.6  -0.2  740  272      0.0     
18 10.08.20 260 (З) 10 км  {гроза}  8/4 600 м средняя, верхняя 
[Sc|Ac trans|Ci fib]
+17.9 +15.5 86 +29  1014.8  -0.3  740  276    +26  0.0     
21 10.08.20 290 (З) 4000 м  дымка  8/0 средняя 
[Ac trans]
+15.3 +14.5 95 +25  1015.3  -0.2  740  279           
00 11.08.20 300 (СЗ) 4000 м  дымка  4/0 верхняя 
[Ci fib]
+14.2 +13.4 95 +21  1015  -0.4  739  280           
03 11.08.20 350 (С) 2000 м  дымка  10/10 300 м 
[St]
+15.2 +14.4 95 +24  1014.8  739  279  +14         
06 11.08.20 350 (С) 10 км    8/4 600 м средняя 
[Sc|Ac trans]
+16.8 +13.1 79 +23  1015.2  0.4  740  278  +14        сухая 
09 11.08.20 350 (С) 10 км    9/8 600 м средняя 
[Sc|Ac trans]
+16.8 +11 69 +20  1015.6  0.4  740  279           
12 11.08.20 360 (С) 10 км    6/6 1000 м 
[Cu hum]
+18.3 +8.7 53 +18  1015.6  0.2  740  278           
15 11.08.20 330 (СЗ) 3{11}  10 км    9/6 600 м средняя 
[Sc|Ac trans]
+16.3 +8.8 61 +17  1016.1  0.3  740  280           
18 11.08.20 320 (СЗ) 10 км    9/4 600 м средняя 
[Sc|Ac trans]
+13.9 +10.9 82 +17  1016.3  -0.1  740  282    +18.8       
21 11.08.20 320 (СЗ) 10 км    10/0 средняя 
[Ac und]
+12.9 +10.2 84 +15  1016.1  -0.3  740  283           
00 12.08.20 320 (СЗ) 4000 м  дымка  8/0 средняя 
[Ac trans]
+11 +9.5 90 +12  1015.9  -0.4  740  285           
03 12.08.20 310 (СЗ) 4000 м  слаб. морось  10/10 300 м 
[St]
+11.2 +9.6 90 +12  1015.8  0.1  740  285  +10.1    0.0     
06 12.08.20 320 (СЗ) 10 км  {морось}  9/9 300 м 
[Sc]
+13.3 +10.7 84 +15  1015.4  0.1  740  282  +10.1    0.0    сухая 
09 12.08.20 320 (СЗ) 10 км  {морось}  9/9 300 м 
[Sc]
+14.6 +11 79 +17  1015.3  0.1  740  281           
12 12.08.20 330 (СЗ) 10 км  {морось}  10/10 300 м 
[Sc]
+14.8 +11 78 +17  1015.5  0.2  740  281           
Время (UTC), дата Ветер
(°,м/с) 
Видим.   Явления Облачность Т
(°С)
Тd
(°С)
f(%) Тe
(°С)
Pmin
(гПа)
dP
(гПа)
Po
(мм)
O2
(г/м3)
Тmin Tmax R s Состояние
почвы

Для получения пояснительной информации подведите курсор к названию столбца.

ПОГОДА в Вязьме - архив

Всё, что Вы хотите узнать о погоде в Вязьме - удобно и подробно!

Выберите нужную дату (начиная с 1 января 2019* года) и нажмите кнопку "Найти".
Будут отображены архивные сводки погоды по пункту Вязьма, начиная с указанной даты.


Отображать данные в формате CSV (для использования в таблицах Excel)


Внимание! Наш архив погоды предназначен исключительно для личного некоммерческого использования в познавательных целях. Если Вам необходимы официальные справки о состоянии погоды (для производственных, юридических, коммерческих и т.п. целей), обращайтесь в органы Росгидромета.

*Примечание: данная дата относится к архиву по метеостанциям СССР (Россия, СНГ, Балтия).
Архив по метеостанциям Зарубежной Европы и Азии (кроме Китая) хранится 10 дней, по другим регионам земного шара (Китай, Африка, Америка, Австралия, Океания) - 1 день.

Вязьма - район местоположения метеостанции


Название, широта, долгота, высота метеостанции:
Вязьма 55.2°ш. 34.4°д. 251 м над ур. моря [Российская Федерация]

Дополнительная информация

В oтличие oт бoльшинства пoгoдных сайтoв мы публикуем пoдрoбную метеoинфoрмацию в детальнoм прoфессиoнальнoм фoрмате.

Характеристики температуры и влажнoсти вoздуха измеряются на высoте 2 м в тени вдали oт зданий и деревьев.
Скoрoсть ветра измеряется на высoте 10 м (на урoвне рoста челoвека скoрoсть ветра ниже в 1.5-2 раза). Если метеoстанция нахoдится в гoрoде или в лесу, тo скoрoсть ветра занижена на 2-4 м/с пo сравнению с oткрытым местoм. Скoрoсть ветра над акватoриями крупных рек и oзёр, а также на вершинах хoлмoв на 2-5 м/с выше, чем в oбычных услoвиях.
Атмoсфернoе давление в разных тoчках местнoсти мoжет значительнo oтличаться oт давления на метеoстанции, в зависимoсти oт услoвий рельефа (при пoдъёме на 10 м давление пoнижается примернo на 1 мм рт.ст.).